Theta_e
346 341 344 334 320 322 315 319 325 323 325 332 330 326 325 327 327 327 347 345 345 350 353 355 359 358 360 363 363 362 361 361 361 359 359 360 360 360 360 361 361 361 360 360 359 357 356 356 356
336 336 335 326 316 311 314 323 320 326 331 333 331 330 326 328 336 342 343 344 348 350 352 352 359 359 361 362 362 361 361 361 361 362 361 360 359 359 359 360 360 358 359 359 359 359 358 356 355
340 335 325 320 314 311 313 321 323 327 332 330 329 333 331 333 339 342 348 346 348 349 349 355 359 360 360 361 362 361 362 362 362 361 360 359 358 360 360 360 359 356 356 356 356 357 357 358 358
333 329 325 313 311 316 317 322 323 326 330 332 332 329 336 345 343 346 348 347 348 347 348 357 360 360 359 359 360 362 362 362 362 360 359 358 358 358 360 359 358 355 353 353 353 353 352 353 354
328 322 312 311 312 316 321 324 325 322 327 328 331 329 334 345 349 351 346 346 346 345 349 355 360 360 359 358 359 361 361 362 361 360 358 358 357 358 358 356 354 353 352 352 351 352 352 352 351
318 318 309 308 312 316 320 323 323 323 325 327 328 328 337 348 348 349 346 346 346 344 350 353 359 360 360 359 359 361 360 361 361 360 359 358 357 356 354 353 352 352 353 352 353 353 353 353 353
313 312 308 310 311 314 317 323 321 323 324 327 331 325 340 344 349 349 347 346 345 345 348 350 353 357 360 360 360 360 360 360 360 360 359 357 356 354 352 352 352 352 352 353 353 353 353 353 353
316 313 309 310 309 311 317 320 322 322 322 336 335 325 331 344 349 349 347 344 344 345 346 347 349 350 351 355 359 359 359 360 360 358 357 356 354 352 352 355 354 353 353 352 352 352 352 353 353
318 309 307 309 310 312 316 315 323 327 325 328 331 330 342 348 349 346 345 343 342 342 345 345 345 346 346 347 354 359 357 357 357 356 355 353 347 346 348 355 356 353 352 352 351 352 355 358 358
311 307 308 313 313 312 314 314 317 321 323 323 326 332 342 346 344 341 341 341 339 340 342 343 343 344 344 344 351 352 352 352 351 350 352 348 347 347 346 354 355 354 353 353 353 355 358 354 351
311 306 312 313 313 313 312 312 314 318 317 322 321 325 340 340 342 339 339 343 342 341 341 341 343 345 344 342 348 348 348 350 350 351 353 349 346 346 347 350 348 350 354 349 351 350 348 350 350
307 311 311 312 312 310 309 312 311 312 314 319 322 322 329 338 338 340 340 343 343 341 341 341 342 345 345 343 345 345 345 348 347 349 354 349 347 346 344 345 344 346 345 347 348 346 348 349 349
308 309 310 310 310 310 311 310 310 311 320 324 324 324 325 334 336 341 344 346 345 342 341 341 342 345 345 347 344 344 344 346 347 349 352 349 348 344 342 344 344 346 346 347 346 347 349 347 347
311 309 310 311 311 311 309 309 310 316 324 323 325 320 325 330 336 341 344 343 346 345 342 343 341 348 347 350 349 345 345 347 347 348 350 351 349 348 343 345 345 346 347 346 345 346 347 347 346
310 306 309 309 310 309 311 307 308 321 324 326 325 329 330 335 337 341 343 346 347 345 345 344 343 346 350 349 350 348 346 345 345 347 353 353 353 353 355 345 346 346 347 346 347 350 347 346 345
307 307 303 309 308 309 308 305 318 324 323 325 327 329 332 335 339 344 343 346 347 346 346 346 342 343 348 349 350 347 347 346 346 346 348 351 351 354 356 346 346 347 349 345 344 345 343 343 342
306 301 303 306 310 311 309 309 318 323 324 324 328 330 333 336 337 341 342 344 347 349 348 348 347 343 346 352 349 350 352 348 346 347 347 355 351 348 353 347 347 353 347 345 344 343 344 341 341
304 304 305 305 310 310 309 311 317 321 322 323 326 328 330 329 328 333 338 340 345 349 350 350 348 351 352 348 351 346 346 347 347 346 347 351 350 349 352 348 352 353 346 345 345 351 345 344 342
308 306 306 309 312 311 310 312 315 318 319 320 323 324 325 326 329 332 335 339 343 347 350 350 348 354 348 346 344 343 344 344 344 346 352 353 350 349 356 347 351 354 351 350 357 350 351 343 346
307 306 306 309 311 310 312 312 315 317 317 320 321 320 321 322 325 329 333 335 338 342 346 351 350 351 351 345 347 346 345 345 345 345 350 351 349 350 352 353 350 355 347 357 356 356 343 343 343
305 304 304 304 309 311 309 310 312 316 317 318 319 319 319 318 320 324 330 332 336 340 345 347 348 350 351 352 349 348 347 346 343 345 347 350 352 352 354 355 353 357 351 346 353 352 352 339 344
300 304 304 302 301 298 309 299 310 313 313 314 316 316 317 318 319 322 327 331 332 332 343 340 346 345 347 350 345 345 341 340 342 342 344 345 346 347 349 353 353 356 348 349 350 351 349 348 339
300 304 301 301 300 300 301 301 308 313 310 312 314 314 316 318 319 320 324 326 326 326 328 332 335 332 326 341 344 341 340 345 338 340 344 346 345 344 343 346 349 350 347 350 351 349 349 346 343
304 302 303 303 300 294 299 299 303 309 311 312 313 314 314 317 319 319 322 326 322 323 323 323 325 325 327 323 323 328 337 337 332 332 333 340 337 341 343 342 343 338 337 340 338 342 346 345 344
303 301 294 294 295 294 302 300 305 312 313 314 312 312 314 315 318 317 319 321 323 322 320 320 319 316 317 318 319 320 321 326 337 337 336 338 337 334 335 331 327 323 320 320 326 331 337 339 336
301 300 294 289 291 295 304 297 304 313 314 314 314 313 313 313 316 317 316 317 317 318 321 324 323 319 318 316 315 317 318 320 319 318 317 321 316 315 318 318 319 317 318 316 319 319 322 323 329
301 298 304 297 298 294 297 304 310 312 311 311 311 311 311 312 315 316 315 316 317 318 319 320 320 320 320 318 317 317 315 316 316 314 313 309 310 309 308 309 308 309 311 309 310 311 311 316 321
302 305 297 297 290 289 295 297 297 305 307 310 310 309 310 311 313 317 316 315 318 319 320 319 319 317 317 317 317 316 316 315 313 312 311 309 309 308 307 307 306 307 306 307 307 306 309 306 309
302 300 299 299 297 291 290 296 308 308 309 309 308 308 309 310 311 314 316 317 317 318 318 317 318 316 316 316 316 316 314 315 313 311 310 308 307 308 306 307 305 304 305 306 304 305 306 305 305
303 301 301 296 295 297 296 295 308 309 308 308 306 308 309 310 310 313 315 316 316 315 318 316 318 317 316 313 310 309 310 311 310 310 308 308 307 307 305 305 304 304 304 304 304 304 303 302 303
Wind_Speed
11 13 11 10 10 11 9 3 7 2 8 8 5 4 12 8 14 6 11 10 17 21 21 19 16 16 14 16 17 16 16 15 14 13 13 12 12 12 12 11 11 12 13 13 13 13 13 13 12
15 14 11 10 13 15 7 7 6 6 12 4 4 2 3 12 9 12 12 13 18 20 19 19 17 16 14 16 17 16 16 15 14 13 13 12 12 12 12 11 11 11 12 11 11 12 12 12 11
16 14 11 13 14 16 5 8 5 3 6 4 2 6 6 12 5 10 15 18 19 19 19 19 17 16 15 15 17 16 16 15 14 13 13 12 12 11 10 10 10 11 10 10 10 10 10 9 9
12 10 10 14 19 16 6 8 7 6 4 4 2 4 6 10 6 5 16 18 18 19 19 22 17 17 16 17 17 16 16 15 14 14 13 13 12 11 9 9 9 10 9 9 9 9 8 8 7
13 11 13 17 20 22 10 9 8 6 8 4 2 2 6 7 5 13 16 16 17 18 19 19 17 16 16 17 17 15 15 14 13 13 13 13 12 10 9 9 8 8 8 8 8 7 7 6 6
11 13 15 16 21 16 9 7 9 6 3 1 4 7 9 12 10 14 16 16 15 16 20 19 17 15 15 16 15 15 14 13 13 12 12 12 12 10 9 8 7 6 6 5 5 5 5 4 4
18 14 18 21 18 13 9 9 11 10 10 10 5 8 12 13 13 15 16 15 15 17 18 18 17 15 14 15 15 14 13 13 12 11 11 11 11 10 8 7 6 5 4 4 4 4 4 4 4
15 15 21 18 16 15 2 10 4 6 6 10 3 1 8 17 14 15 16 16 16 17 19 18 17 17 16 15 14 13 12 12 11 12 11 11 10 10 9 8 7 6 5 5 4 4 5 5 6
16 15 15 19 20 9 6 8 9 6 7 7 6 3 9 17 14 14 15 15 15 15 19 18 18 18 16 16 14 12 12 11 11 11 11 10 10 11 12 8 10 7 6 5 5 5 7 8 9
14 14 19 13 8 7 8 6 7 3 8 8 5 6 8 15 10 14 15 15 15 17 18 18 18 18 17 13 16 14 13 11 11 12 12 11 11 10 9 11 9 7 7 6 6 7 10 11 10
17 18 15 8 5 9 12 12 4 7 7 10 8 11 18 11 13 10 13 16 17 17 14 17 16 17 18 15 13 9 9 9 9 13 11 12 8 8 8 7 7 8 10 8 8 8 9 14 10
18 16 14 16 7 11 12 11 11 8 9 9 12 9 5 10 13 10 11 12 17 17 16 16 17 16 16 12 12 12 11 11 10 12 12 9 5 7 9 8 10 9 9 11 9 9 7 1 5
14 14 12 10 11 9 9 11 8 8 11 10 9 15 6 12 10 12 10 12 9 16 17 16 17 15 13 11 12 12 12 12 13 12 12 10 8 8 9 7 8 7 9 7 7 5 4 5 8
8 13 13 10 11 9 10 10 5 9 4 5 6 9 5 6 13 9 13 11 14 13 15 15 15 15 15 11 12 12 11 12 11 11 12 14 9 7 9 8 7 7 8 7 7 5 5 7 7
9 12 12 12 12 9 9 12 9 7 3 5 2 6 2 6 7 11 7 11 12 12 12 14 15 17 15 15 12 10 11 12 11 10 11 13 10 8 9 9 8 9 6 10 6 6 6 6 5
13 14 14 13 2 8 6 6 8 3 2 9 5 7 12 8 5 15 10 7 12 12 13 15 14 17 17 14 12 11 11 11 11 11 11 14 14 11 9 9 9 9 7 9 7 6 7 8 7
10 14 12 12 4 6 14 10 5 3 6 7 8 7 11 14 17 15 6 8 8 14 13 14 15 15 19 15 12 12 13 11 12 11 11 14 14 16 10 11 9 7 8 8 7 8 9 8 7
10 9 6 8 11 10 14 12 8 5 8 9 8 8 15 10 10 10 12 11 7 11 15 14 14 13 12 12 11 12 12 12 12 12 12 13 13 15 12 11 11 9 8 10 9 9 9 8 7
7 7 8 4 6 12 6 10 7 5 8 10 10 11 10 9 6 5 9 10 9 7 9 13 17 14 11 11 13 12 12 12 12 11 13 13 13 15 10 11 11 8 9 11 9 8 7 8 7
9 12 13 5 3 8 11 11 8 7 9 9 11 10 10 10 10 8 11 9 11 10 8 10 12 15 14 12 10 10 11 11 11 11 12 13 13 13 12 12 12 11 11 10 8 9 9 10 9
11 9 14 10 5 9 14 13 15 12 13 11 11 11 11 11 11 10 11 10 12 5 7 7 11 11 13 15 11 9 10 10 10 8 6 9 11 11 11 11 12 8 11 10 9 10 12 11 9
12 9 9 11 13 14 20 14 22 19 12 11 10 9 11 11 12 12 13 13 13 13 13 12 8 6 10 14 11 13 12 10 9 8 9 6 4 8 10 11 10 9 9 12 11 10 12 12 10
14 9 11 13 14 16 17 10 12 19 16 12 10 9 10 11 12 13 14 13 12 13 12 12 11 13 14 13 10 9 10 1 4 3 8 10 10 11 12 11 10 10 9 11 9 11 13 11 12
10 14 14 14 13 14 17 16 12 17 16 15 9 8 7 9 13 11 12 13 13 13 14 14 13 12 12 10 13 14 9 3 3 3 7 4 4 6 11 10 5 4 4 3 5 5 10 11 10
12 14 12 12 14 15 3 9 11 12 9 12 8 7 8 8 12 10 11 11 11 12 11 10 11 12 12 10 9 8 8 11 11 10 9 8 4 1 2 5 7 6 6 4 4 3 5 7 9
9 7 11 17 13 2 8 9 9 15 11 9 7 4 7 8 10 11 7 7 9 11 12 10 10 10 10 11 10 8 7 4 4 4 4 1 3 3 6 7 8 8 8 6 4 3 4 5 5
4 10 7 10 16 14 16 9 10 16 12 8 4 1 7 6 7 9 5 5 5 6 8 8 9 9 10 9 8 8 7 7 5 5 4 4 5 4 5 5 6 9 8 8 7 5 5 4 4
11 10 8 11 12 17 13 15 4 17 13 10 6 1 5 3 6 11 6 4 3 2 3 5 5 6 6 7 8 7 6 5 5 3 2 3 4 6 5 5 5 4 9 7 8 6 7 8 7
11 12 9 9 11 12 12 3 12 12 9 8 3 2 2 1 4 5 7 7 3 2 3 4 4 4 5 5 6 5 6 6 6 4 3 5 6 4 6 5 7 7 8 8 8 8 8 13 7
10 14 13 10 13 8 10 11 6 7 7 7 5 6 2 1 1 4 5 4 4 3 2 3 2 3 4 4 5 7 8 8 6 7 7 6 5 6 7 6 7 7 7 7 8 10 9 11 11
Wind_Direction
182 201 226 238 247 231 221 183 338 271 190 56 70 344 10 14 11 60 122 144 136 131 142 152 149 149 153 140 134 134 135 133 137 142 142 136 127 125 121 119 117 117 113 110 111 110 108 106 103
201 211 232 269 255 268 228 126 193 27 50 46 91 213 176 72 72 119 135 151 144 136 146 148 150 150 156 141 135 138 138 137 142 143 136 131 128 125 122 120 119 117 116 116 116 116 116 116 114
259 219 252 240 240 259 293 142 31 139 144 143 168 324 38 72 84 147 111 151 143 146 153 135 151 150 154 144 141 145 141 141 140 137 134 135 130 124 123 120 119 119 121 122 119 117 117 121 125
214 211 243 261 254 237 299 133 97 183 141 121 4 199 111 29 110 133 142 151 142 150 155 137 149 151 155 152 147 146 144 142 143 144 145 140 135 128 127 124 125 126 126 124 120 119 120 122 121
228 238 233 232 240 268 168 118 250 292 125 178 254 270 103 100 85 115 150 159 153 148 137 148 152 152 156 157 153 149 146 144 147 149 149 141 136 133 129 127 128 129 128 130 132 130 125 130 141
211 233 239 234 240 234 216 214 199 185 198 198 213 260 86 113 131 140 156 160 159 149 132 143 153 155 156 157 157 151 148 148 150 152 150 143 138 140 137 134 137 136 134 139 135 139 136 145 161
229 215 241 251 261 225 215 199 250 203 214 179 254 310 113 134 128 147 159 157 159 151 143 151 163 163 162 157 156 154 153 151 151 147 148 144 143 143 143 142 151 145 152 172 172 163 157 174 188
235 260 250 245 263 259 222 193 277 255 294 57 59 191 89 121 147 154 161 169 164 159 149 161 166 168 178 165 160 160 156 153 151 150 152 151 146 153 162 165 163 157 177 174 184 185 172 185 194
232 252 247 247 252 247 263 203 209 202 296 169 185 302 70 129 157 164 170 172 172 167 157 165 171 167 183 168 161 162 165 162 160 163 161 168 181 179 168 117 144 161 171 174 185 210 214 203 198
230 231 247 261 333 312 278 260 231 164 247 255 183 150 129 147 176 182 182 178 186 175 168 168 174 168 178 170 155 186 178 185 191 189 175 209 202 181 215 134 151 170 178 192 207 228 235 213 179
221 253 257 278 281 294 289 285 252 242 218 260 265 282 143 172 181 208 208 190 182 179 178 174 176 169 183 173 158 185 181 190 194 198 186 221 197 164 190 154 176 184 195 190 196 199 224 207 213
237 254 268 283 254 251 251 264 262 253 258 279 297 304 148 174 196 187 228 213 180 179 180 182 174 176 199 173 169 187 189 191 193 194 192 220 205 174 219 189 192 197 176 213 200 200 230 22 303
231 255 259 246 251 244 246 246 259 246 38 354 318 273 218 169 217 160 192 235 186 184 181 187 175 176 204 190 176 189 201 189 193 187 187 223 209 204 216 215 221 189 186 186 205 210 130 211 238
199 235 260 231 226 220 239 241 236 99 13 305 287 243 178 227 175 172 181 191 210 196 185 190 187 170 206 192 188 195 199 187 208 192 186 216 205 211 222 221 229 227 219 197 206 189 171 228 226
264 253 237 238 227 231 236 247 218 25 11 34 320 80 115 71 147 164 184 195 190 188 191 203 198 173 210 189 205 215 196 216 208 208 187 191 214 214 242 223 202 235 232 241 201 151 189 244 246
240 234 251 193 160 225 206 177 62 37 59 102 29 119 116 95 39 113 163 235 187 206 206 198 200 186 190 215 201 205 218 210 203 217 193 190 206 239 207 235 213 224 217 230 214 174 193 225 218
194 243 216 143 225 139 212 140 80 60 75 79 83 74 96 76 39 14 153 210 235 194 199 214 211 214 186 216 210 225 214 211 221 207 211 187 214 212 217 234 227 217 223 224 223 194 215 204 237
173 220 174 274 145 211 201 129 106 98 107 90 85 88 57 51 31 355 347 345 236 212 205 207 216 215 198 188 218 210 235 210 223 216 212 190 202 219 200 228 239 200 220 226 216 230 208 229 204
9 305 319 108 90 275 329 76 108 123 117 100 91 77 82 85 88 23 351 333 327 288 201 203 205 209 217 196 199 212 216 222 212 223 215 214 200 211 220 223 222 204 222 238 202 219 221 225 204
289 278 270 104 209 270 163 154 149 137 96 90 101 91 83 71 62 42 38 359 323 302 308 197 211 211 210 210 209 215 223 215 224 212 217 212 215 213 212 219 241 196 223 232 229 215 209 225 211
279 289 291 305 174 236 273 182 162 142 125 111 102 104 87 70 55 41 44 37 8 336 343 288 204 218 215 230 212 218 224 228 212 221 227 199 211 220 229 214 232 213 206 228 212 212 224 207 207
306 323 329 287 274 263 210 258 162 153 139 125 114 93 89 70 56 39 44 33 20 9 6 9 347 266 226 229 245 236 217 212 212 212 211 225 231 248 239 236 228 243 216 241 196 217 222 238 212
287 345 287 276 266 265 246 237 171 157 159 134 112 98 93 83 59 33 42 46 25 15 16 24 25 29 12 333 266 250 235 311 351 347 240 204 199 198 231 243 243 237 234 238 249 212 218 224 242
305 272 255 244 245 242 239 250 194 178 163 131 121 96 75 82 81 44 45 57 49 39 34 25 35 31 24 18 9 347 293 351 267 256 283 242 212 203 202 211 223 52 10 307 316 283 240 238 244
245 260 257 220 214 233 161 181 71 105 96 113 124 100 74 46 78 61 40 37 54 57 50 42 34 23 12 15 17 4 353 338 262 241 234 227 216 202 160 133 117 109 83 48 20 352 257 255 254
295 310 293 307 298 51 142 230 107 113 118 129 125 91 67 48 69 78 57 46 34 26 23 31 41 38 25 15 7 6 2 333 322 348 8 29 74 108 144 129 130 128 127 109 84 35 348 332 286
187 247 0 303 276 267 286 94 137 145 151 158 130 107 67 72 69 97 110 88 59 37 26 18 16 19 19 23 17 14 7 3 353 28 29 49 56 83 74 77 98 116 114 100 90 82 51 16 339
259 346 248 215 262 269 260 258 132 158 169 170 195 118 90 73 87 115 125 120 115 78 20 15 20 23 26 24 18 18 15 19 37 29 49 102 106 106 110 101 101 135 97 104 92 75 75 74 43
186 223 226 294 299 300 292 319 81 145 163 146 162 122 111 91 64 75 102 103 109 38 13 26 8 28 21 24 25 14 29 36 50 58 89 84 89 97 101 121 129 116 120 102 94 93 82 82 57
277 282 290 262 261 233 275 288 85 113 143 164 198 166 168 348 341 108 114 112 60 16 59 76 48 51 42 48 50 46 41 41 60 58 70 79 85 93 96 92 83 82 84 100 110 116 107 94 74